contact:dominique.lefevre@mio.osupytheas.fr, maurice.libes@osupytheas.fr, didier.mallarino@osupytheas.fr
Project:EMSO http://www.emso-fr.org/EMSO-France
Depth: 2436.0 m
Title:EMSO Ligure Ouest : Data MII capteur OXYGEN
DateTime,Latitude,Longitude,Optode-Type,Optode_Serial,Oxygen,Saturation_Oxygen,Temperature
DateTime,Latitude,Longitude,Optode-Type,Optode_Serial,µmol.l-1,%,degC
2017-11-07T00:01:22,42.805,6.029,4330,1995,196.918,60.219,13.287
2017-11-07T00:04:22,42.805,6.029,4330,1995,196.627,60.129,13.287
2017-11-07T00:07:22,42.805,6.029,4330,1995,196.651,60.137,13.287
2017-11-07T00:10:22,42.805,6.029,4330,1995,196.853,60.199,13.287
2017-11-07T00:13:22,42.805,6.029,4330,1995,196.833,60.193,13.287
2017-11-07T00:16:22,42.805,6.029,4330,1995,196.801,60.183,13.287
2017-11-07T00:19:22,42.805,6.029,4330,1995,196.805,60.184,13.287
2017-11-07T00:22:22,42.805,6.029,4330,1995,196.760,60.171,13.287
2017-11-07T00:25:22,42.805,6.029,4330,1995,196.718,60.158,13.287
2017-11-07T00:28:22,42.805,6.029,4330,1995,196.635,60.133,13.287
2017-11-07T00:31:22,42.805,6.029,4330,1995,196.699,60.152,13.287
2017-11-07T00:34:22,42.805,6.029,4330,1995,196.829,60.192,13.287
2017-11-07T00:37:22,42.805,6.029,4330,1995,196.901,60.213,13.287
2017-11-07T00:40:22,42.805,6.029,4330,1995,196.932,60.223,13.287
2017-11-07T00:43:22,42.805,6.029,4330,1995,196.990,60.241,13.287
2017-11-07T00:46:22,42.805,6.029,4330,1995,196.987,60.240,13.287
2017-11-07T00:49:22,42.805,6.029,4330,1995,197.081,60.268,13.287
2017-11-07T00:52:22,42.805,6.029,4330,1995,196.982,60.238,13.287
2017-11-07T00:55:22,42.805,6.029,4330,1995,196.984,60.238,13.286
2017-11-07T00:58:22,42.805,6.029,4330,1995,196.970,60.235,13.287
2017-11-07T01:01:22,42.805,6.029,4330,1995,197.059,60.262,13.287
2017-11-07T01:04:22,42.805,6.029,4330,1995,196.998,60.243,13.287
2017-11-07T01:07:22,42.805,6.029,4330,1995,196.944,60.227,13.287
2017-11-07T01:10:22,42.805,6.029,4330,1995,196.925,60.221,13.287
2017-11-07T01:13:22,42.805,6.029,4330,1995,196.974,60.235,13.286
2017-11-07T01:16:22,42.805,6.029,4330,1995,196.963,60.233,13.287
2017-11-07T01:19:22,42.805,6.029,4330,1995,197.053,60.260,13.287
2017-11-07T01:22:22,42.805,6.029,4330,1995,196.901,60.213,13.287
2017-11-07T01:25:22,42.805,6.029,4330,1995,196.917,60.218,13.287
2017-11-07T01:28:22,42.805,6.029,4330,1995,196.881,60.207,13.287
2017-11-07T01:31:22,42.805,6.029,4330,1995,196.859,60.201,13.287
2017-11-07T01:34:22,42.805,6.029,4330,1995,197.006,60.246,13.287
2017-11-07T01:37:22,42.805,6.029,4330,1995,196.989,60.242,13.288
2017-11-07T01:40:22,42.805,6.029,4330,1995,197.000,60.244,13.287
2017-11-07T01:43:22,42.805,6.029,4330,1995,196.831,60.193,13.287
2017-11-07T01:46:22,42.805,6.029,4330,1995,196.871,60.204,13.287
2017-11-07T01:49:22,42.805,6.029,4330,1995,196.950,60.229,13.287
2017-11-07T01:52:22,42.805,6.029,4330,1995,196.984,60.239,13.287
2017-11-07T01:55:22,42.805,6.029,4330,1995,196.965,60.233,13.287
2017-11-07T01:58:22,42.805,6.029,4330,1995,196.994,60.242,13.287
2017-11-07T02:01:22,42.805,6.029,4330,1995,196.930,60.222,13.287
2017-11-07T02:04:22,42.805,6.029,4330,1995,197.096,60.273,13.287
2017-11-07T02:07:22,42.805,6.029,4330,1995,197.094,60.272,13.287
2017-11-07T02:10:22,42.805,6.029,4330,1995,197.149,60.289,13.287
2017-11-07T02:13:22,42.805,6.029,4330,1995,197.201,60.305,13.287
2017-11-07T02:16:22,42.805,6.029,4330,1995,197.341,60.348,13.287
2017-11-07T02:19:22,42.805,6.029,4330,1995,197.356,60.352,13.286
2017-11-07T02:22:22,42.805,6.029,4330,1995,197.308,60.337,13.287
2017-11-07T02:25:22,42.805,6.029,4330,1995,197.378,60.359,13.287
2017-11-07T02:28:22,42.805,6.029,4330,1995,197.545,60.410,13.287
2017-11-07T02:31:22,42.805,6.029,4330,1995,197.527,60.405,13.287
2017-11-07T02:34:22,42.805,6.029,4330,1995,197.596,60.426,13.287
2017-11-07T02:37:22,42.805,6.029,4330,1995,197.596,60.426,13.287
2017-11-07T02:40:22,42.805,6.029,4330,1995,197.650,60.442,13.287
2017-11-07T02:43:22,42.805,6.029,4330,1995,197.674,60.449,13.286
2017-11-07T02:46:22,42.805,6.029,4330,1995,197.719,60.463,13.287
2017-11-07T02:49:22,42.805,6.029,4330,1995,197.808,60.490,13.287
2017-11-07T02:52:22,42.805,6.029,4330,1995,198.044,60.562,13.286
2017-11-07T02:55:22,42.805,6.029,4330,1995,198.027,60.557,13.287
2017-11-07T02:58:22,42.805,6.029,4330,1995,198.002,60.550,13.287
2017-11-07T03:01:22,42.805,6.029,4330,1995,198.196,60.609,13.287
2017-11-07T03:04:22,42.805,6.029,4330,1995,198.223,60.617,13.286
2017-11-07T03:07:22,42.805,6.029,4330,1995,198.167,60.600,13.286
2017-11-07T03:10:22,42.805,6.029,4330,1995,198.265,60.630,13.286
2017-11-07T03:13:22,42.805,6.029,4330,1995,198.302,60.641,13.286
2017-11-07T03:16:22,42.805,6.029,4330,1995,198.364,60.660,13.286
2017-11-07T03:19:22,42.805,6.029,4330,1995,198.428,60.680,13.286
2017-11-07T03:22:22,42.805,6.029,4330,1995,198.469,60.692,13.286
2017-11-07T03:25:22,42.805,6.029,4330,1995,198.459,60.689,13.286
2017-11-07T03:28:22,42.805,6.029,4330,1995,198.352,60.657,13.286
2017-11-07T03:31:22,42.805,6.029,4330,1995,198.443,60.684,13.286
2017-11-07T03:34:22,42.805,6.029,4330,1995,198.446,60.685,13.286
2017-11-07T03:37:22,42.805,6.029,4330,1995,198.445,60.685,13.286
2017-11-07T03:40:22,42.805,6.029,4330,1995,198.522,60.709,13.286
2017-11-07T03:43:22,42.805,6.029,4330,1995,198.490,60.699,13.286
2017-11-07T03:46:22,42.805,6.029,4330,1995,198.571,60.723,13.286
2017-11-07T03:49:22,42.805,6.029,4330,1995,198.470,60.692,13.286
2017-11-07T03:52:22,42.805,6.029,4330,1995,198.489,60.699,13.286
2017-11-07T03:55:22,42.805,6.029,4330,1995,198.487,60.698,13.287
2017-11-07T03:58:22,42.805,6.029,4330,1995,198.468,60.692,13.286
2017-11-07T04:01:22,42.805,6.029,4330,1995,198.458,60.689,13.286
2017-11-07T04:04:22,42.805,6.029,4330,1995,198.414,60.675,13.286
2017-11-07T04:07:22,42.805,6.029,4330,1995,198.409,60.674,13.287
2017-11-07T04:10:22,42.805,6.029,4330,1995,198.413,60.675,13.286
2017-11-07T04:13:22,42.805,6.029,4330,1995,198.359,60.659,13.286
2017-11-07T04:16:22,42.805,6.029,4330,1995,198.370,60.662,13.287
2017-11-07T04:19:22,42.805,6.029,4330,1995,198.292,60.638,13.286
2017-11-07T04:22:22,42.805,6.029,4330,1995,198.331,60.650,13.286
2017-11-07T04:25:22,42.805,6.029,4330,1995,198.317,60.646,13.286
2017-11-07T04:28:22,42.805,6.029,4330,1995,198.293,60.639,13.287
2017-11-07T04:31:22,42.805,6.029,4330,1995,198.237,60.622,13.287
2017-11-07T04:34:22,42.805,6.029,4330,1995,198.184,60.606,13.287
2017-11-07T04:37:22,42.805,6.029,4330,1995,198.156,60.597,13.287
2017-11-07T04:40:22,42.805,6.029,4330,1995,198.111,60.583,13.286
2017-11-07T04:43:22,42.805,6.029,4330,1995,198.026,60.557,13.286
2017-11-07T04:46:22,42.805,6.029,4330,1995,198.102,60.580,13.286
2017-11-07T04:49:22,42.805,6.029,4330,1995,197.982,60.543,13.286
2017-11-07T04:52:22,42.805,6.029,4330,1995,198.039,60.561,13.286
2017-11-07T04:55:22,42.805,6.029,4330,1995,198.154,60.596,13.286
2017-11-07T04:58:22,42.805,6.029,4330,1995,198.112,60.584,13.287
2017-11-07T05:01:22,42.805,6.029,4330,1995,198.008,60.551,13.286
2017-11-07T05:04:22,42.805,6.029,4330,1995,198.029,60.559,13.287
2017-11-07T05:07:22,42.805,6.029,4330,1995,198.083,60.574,13.286
2017-11-07T05:10:22,42.805,6.029,4330,1995,198.063,60.570,13.288
2017-11-07T05:13:22,42.805,6.029,4330,1995,198.019,60.556,13.287
2017-11-07T05:16:22,42.805,6.029,4330,1995,198.061,60.567,13.286
2017-11-07T05:19:22,42.805,6.029,4330,1995,198.105,60.582,13.287
2017-11-07T05:22:22,42.805,6.029,4330,1995,198.038,60.561,13.286
2017-11-07T05:25:22,42.805,6.029,4330,1995,197.945,60.533,13.287
2017-11-07T05:28:22,42.805,6.029,4330,1995,198.092,60.578,13.287
2017-11-07T05:31:22,42.805,6.029,4330,1995,198.164,60.599,13.286
2017-11-07T05:34:22,42.805,6.029,4330,1995,198.223,60.617,13.286
2017-11-07T05:37:22,42.805,6.029,4330,1995,198.184,60.606,13.287
2017-11-07T05:40:22,42.805,6.029,4330,1995,198.277,60.634,13.286
2017-11-07T05:43:22,42.805,6.029,4330,1995,198.325,60.648,13.286
2017-11-07T05:46:22,42.805,6.029,4330,1995,198.356,60.658,13.286
2017-11-07T05:49:22,42.805,6.029,4330,1995,198.247,60.625,13.287
2017-11-07T05:52:22,42.805,6.029,4330,1995,198.352,60.657,13.287
2017-11-07T05:55:22,42.805,6.029,4330,1995,198.195,60.609,13.286
2017-11-07T05:58:22,42.805,6.029,4330,1995,198.272,60.633,13.287
2017-11-07T06:01:22,42.805,6.029,4330,1995,198.141,60.594,13.288
2017-11-07T06:04:22,42.805,6.029,4330,1995,198.222,60.618,13.287
2017-11-07T06:07:22,42.805,6.029,4330,1995,198.129,60.588,13.286
2017-11-07T06:10:22,42.805,6.029,4330,1995,198.241,60.622,13.286
2017-11-07T06:13:22,42.805,6.029,4330,1995,198.178,60.604,13.287
2017-11-07T06:16:22,42.805,6.029,4330,1995,198.136,60.591,13.287
2017-11-07T06:19:22,42.805,6.029,4330,1995,198.063,60.568,13.286
2017-11-07T06:22:22,42.805,6.029,4330,1995,198.093,60.578,13.287
2017-11-07T06:25:22,42.805,6.029,4330,1995,198.051,60.565,13.287
2017-11-07T06:28:22,42.805,6.029,4330,1995,198.110,60.583,13.286
2017-11-07T06:31:22,42.805,6.029,4330,1995,198.080,60.574,13.287
2017-11-07T06:34:22,42.805,6.029,4330,1995,198.060,60.568,13.287
2017-11-07T06:37:22,42.805,6.029,4330,1995,197.967,60.540,13.287
2017-11-07T06:40:22,42.805,6.029,4330,1995,197.802,60.489,13.287
2017-11-07T06:43:22,42.805,6.029,4330,1995,197.895,60.518,13.287
2017-11-07T06:46:22,42.805,6.029,4330,1995,197.888,60.515,13.287
2017-11-07T06:49:22,42.805,6.029,4330,1995,197.914,60.523,13.287
2017-11-07T06:52:22,42.805,6.029,4330,1995,197.780,60.482,13.287
2017-11-07T06:55:22,42.805,6.029,4330,1995,197.847,60.502,13.287
2017-11-07T06:58:22,42.805,6.029,4330,1995,197.830,60.497,13.286
2017-11-07T07:01:22,42.805,6.029,4330,1995,197.794,60.487,13.287
2017-11-07T07:04:22,42.805,6.029,4330,1995,197.865,60.508,13.287
2017-11-07T07:07:22,42.805,6.029,4330,1995,197.779,60.482,13.287
2017-11-07T07:10:22,42.805,6.029,4330,1995,197.780,60.483,13.287
2017-11-07T07:13:22,42.805,6.029,4330,1995,197.623,60.435,13.287
2017-11-07T07:16:22,42.805,6.029,4330,1995,197.729,60.466,13.287
2017-11-07T07:19:22,42.805,6.029,4330,1995,197.704,60.460,13.287
2017-11-07T07:22:22,42.805,6.029,4330,1995,197.517,60.402,13.287
2017-11-07T07:25:22,42.805,6.029,4330,1995,197.493,60.395,13.287
2017-11-07T07:28:22,42.805,6.029,4330,1995,197.525,60.405,13.287
2017-11-07T07:31:22,42.805,6.029,4330,1995,197.683,60.452,13.286
2017-11-07T07:34:22,42.805,6.029,4330,1995,197.584,60.422,13.286
2017-11-07T07:37:22,42.805,6.029,4330,1995,197.743,60.472,13.288
2017-11-07T07:40:22,42.805,6.029,4330,1995,197.869,60.511,13.288
2017-11-07T07:43:22,42.805,6.029,4330,1995,197.783,60.483,13.287
2017-11-07T07:46:22,42.805,6.029,4330,1995,197.567,60.417,13.287
2017-11-07T07:49:22,42.805,6.029,4330,1995,197.435,60.377,13.287
2017-11-07T07:52:22,42.805,6.029,4330,1995,197.457,60.383,13.287
2017-11-07T07:55:22,42.805,6.029,4330,1995,197.657,60.445,13.287
2017-11-07T07:58:22,42.805,6.029,4330,1995,197.542,60.410,13.287
2017-11-07T08:01:22,42.805,6.029,4330,1995,197.608,60.429,13.287
2017-11-07T08:04:22,42.805,6.029,4330,1995,197.510,60.400,13.287
2017-11-07T08:07:22,42.805,6.029,4330,1995,197.425,60.374,13.287
2017-11-07T08:10:22,42.805,6.029,4330,1995,197.414,60.370,13.287
2017-11-07T08:13:22,42.805,6.029,4330,1995,197.532,60.408,13.288
2017-11-07T08:16:22,42.805,6.029,4330,1995,197.425,60.374,13.287
2017-11-07T08:19:22,42.805,6.029,4330,1995,197.368,60.357,13.287
2017-11-07T08:22:22,42.805,6.029,4330,1995,197.267,60.326,13.288
2017-11-07T08:25:22,42.805,6.029,4330,1995,197.501,60.398,13.288
2017-11-07T08:28:22,42.805,6.029,4330,1995,197.526,60.405,13.287
2017-11-07T08:31:22,42.805,6.029,4330,1995,197.477,60.390,13.287
2017-11-07T08:34:22,42.805,6.029,4330,1995,197.301,60.336,13.287
2017-11-07T08:37:22,42.805,6.029,4330,1995,197.195,60.305,13.288
2017-11-07T08:40:22,42.805,6.029,4330,1995,197.447,60.381,13.288
2017-11-07T08:43:22,42.805,6.029,4330,1995,197.399,60.366,13.287
2017-11-07T08:46:22,42.805,6.029,4330,1995,197.218,60.311,13.287
2017-11-07T08:49:22,42.805,6.029,4330,1995,197.126,60.283,13.287
2017-11-07T08:52:22,42.805,6.029,4330,1995,197.029,60.253,13.287
2017-11-07T08:55:22,42.805,6.029,4330,1995,197.206,60.308,13.287
2017-11-07T08:58:22,42.805,6.029,4330,1995,197.157,60.292,13.287
2017-11-07T09:01:22,42.805,6.029,4330,1995,197.187,60.301,13.287
2017-11-07T09:04:22,42.805,6.029,4330,1995,196.926,60.223,13.288
2017-11-07T09:07:22,42.805,6.029,4330,1995,197.040,60.256,13.287
2017-11-07T09:10:22,42.805,6.029,4330,1995,196.991,60.241,13.287
2017-11-07T09:13:22,42.805,6.029,4330,1995,196.854,60.199,13.287
2017-11-07T09:16:21,42.805,6.029,4330,1995,196.802,60.185,13.288
2017-11-07T09:19:21,42.805,6.029,4330,1995,196.836,60.194,13.287
2017-11-07T09:22:21,42.805,6.029,4330,1995,196.893,60.211,13.287
2017-11-07T09:25:21,42.805,6.029,4330,1995,196.994,60.242,13.287
2017-11-07T09:28:22,42.805,6.029,4330,1995,196.865,60.204,13.288
2017-11-07T09:31:21,42.805,6.029,4330,1995,197.004,60.246,13.288
2017-11-07T09:34:21,42.805,6.029,4330,1995,196.863,60.202,13.287
2017-11-07T09:37:21,42.805,6.029,4330,1995,196.742,60.165,13.287
2017-11-07T09:40:21,42.805,6.029,4330,1995,196.607,60.124,13.287
2017-11-07T09:43:21,42.805,6.029,4330,1995,196.504,60.094,13.288
2017-11-07T09:46:21,42.805,6.029,4330,1995,196.512,60.096,13.288
2017-11-07T09:49:21,42.805,6.029,4330,1995,196.478,60.085,13.287
2017-11-07T09:52:21,42.805,6.029,4330,1995,196.718,60.162,13.290
2017-11-07T09:55:21,42.805,6.029,4330,1995,196.906,60.215,13.287
2017-11-07T09:58:21,42.805,6.029,4330,1995,197.101,60.279,13.290
2017-11-07T10:01:21,42.805,6.029,4330,1995,197.019,60.250,13.287
2017-11-07T10:04:21,42.805,6.029,4330,1995,196.751,60.169,13.288
2017-11-07T10:07:21,42.805,6.029,4330,1995,196.707,60.156,13.288
2017-11-07T10:10:21,42.805,6.029,4330,1995,196.533,60.102,13.288
2017-11-07T10:13:21,42.805,6.029,4330,1995,196.718,60.159,13.288
2017-11-07T10:16:21,42.805,6.029,4330,1995,196.665,60.142,13.287
2017-11-07T10:19:21,42.805,6.029,4330,1995,196.380,60.055,13.288
2017-11-07T10:22:21,42.805,6.029,4330,1995,196.394,60.060,13.288
2017-11-07T10:25:21,42.805,6.029,4330,1995,196.373,60.053,13.288
2017-11-07T10:28:21,42.805,6.029,4330,1995,196.166,59.991,13.289
2017-11-07T10:31:21,42.805,6.029,4330,1995,196.427,60.071,13.289
2017-11-07T10:34:21,42.805,6.029,4330,1995,196.202,60.002,13.289
2017-11-07T10:37:21,42.805,6.029,4330,1995,195.912,59.914,13.289
2017-11-07T10:40:21,42.805,6.029,4330,1995,196.100,59.974,13.291
2017-11-07T10:43:21,42.805,6.029,4330,1995,195.860,59.901,13.291
2017-11-07T10:46:21,42.805,6.029,4330,1995,195.776,59.871,13.288
2017-11-07T10:49:21,42.805,6.029,4330,1995,195.668,59.839,13.289
2017-11-07T10:52:21,42.805,6.029,4330,1995,196.083,59.967,13.289
2017-11-07T10:55:21,42.805,6.029,4330,1995,196.277,60.028,13.291
2017-11-07T10:58:21,42.805,6.029,4330,1995,195.955,59.931,13.292
2017-11-07T11:01:21,42.805,6.029,4330,1995,195.665,59.837,13.288
2017-11-07T11:04:21,42.805,6.029,4330,1995,195.607,59.818,13.287
2017-11-07T11:07:21,42.805,6.029,4330,1995,195.634,59.827,13.287
2017-11-07T11:10:21,42.805,6.029,4330,1995,195.809,59.881,13.288
2017-11-07T11:13:21,42.805,6.029,4330,1995,195.868,59.899,13.288
2017-11-07T11:16:21,42.805,6.029,4330,1995,196.072,59.962,13.288
2017-11-07T11:19:21,42.805,6.029,4330,1995,196.365,60.052,13.288
2017-11-07T11:22:21,42.805,6.029,4330,1995,196.538,60.103,13.287
2017-11-07T11:25:21,42.805,6.029,4330,1995,196.610,60.126,13.288
2017-11-07T11:28:21,42.805,6.029,4330,1995,196.647,60.137,13.288
2017-11-07T11:31:21,42.805,6.029,4330,1995,196.549,60.107,13.288
2017-11-07T11:34:21,42.805,6.029,4330,1995,196.325,60.038,13.288
2017-11-07T11:37:21,42.805,6.029,4330,1995,196.329,60.039,13.287
2017-11-07T11:40:21,42.805,6.029,4330,1995,196.438,60.073,13.288
2017-11-07T11:43:21,42.805,6.029,4330,1995,196.570,60.114,13.288
2017-11-07T11:46:21,42.805,6.029,4330,1995,196.763,60.171,13.287
2017-11-07T11:49:21,42.805,6.029,4330,1995,196.751,60.168,13.287
2017-11-07T11:52:21,42.805,6.029,4330,1995,196.835,60.194,13.287
2017-11-07T11:55:21,42.805,6.029,4330,1995,196.888,60.210,13.287
2017-11-07T11:58:21,42.805,6.029,4330,1995,196.823,60.190,13.287
2017-11-07T12:01:21,42.805,6.029,4330,1995,196.928,60.222,13.287
2017-11-07T12:04:21,42.805,6.029,4330,1995,197.064,60.263,13.287
2017-11-07T12:07:21,42.805,6.029,4330,1995,197.169,60.295,13.287
2017-11-07T12:10:21,42.805,6.029,4330,1995,197.136,60.285,13.287
2017-11-07T12:13:21,42.805,6.029,4330,1995,197.288,60.332,13.287
2017-11-07T12:16:21,42.805,6.029,4330,1995,197.414,60.370,13.287
2017-11-07T12:19:21,42.805,6.029,4330,1995,197.348,60.350,13.287
2017-11-07T12:22:21,42.805,6.029,4330,1995,197.436,60.377,13.287
2017-11-07T12:25:21,42.805,6.029,4330,1995,197.481,60.390,13.286
2017-11-07T12:28:21,42.805,6.029,4330,1995,197.523,60.403,13.286
2017-11-07T12:31:21,42.805,6.029,4330,1995,197.587,60.423,13.286
2017-11-07T12:34:21,42.805,6.029,4330,1995,197.597,60.426,13.287
2017-11-07T12:37:21,42.805,6.029,4330,1995,197.611,60.430,13.287
2017-11-07T12:40:21,42.805,6.029,4330,1995,197.583,60.422,13.286
2017-11-07T12:43:21,42.805,6.029,4330,1995,197.639,60.439,13.286
2017-11-07T12:46:21,42.805,6.029,4330,1995,197.717,60.462,13.286
2017-11-07T12:49:21,42.805,6.029,4330,1995,197.746,60.471,13.286
2017-11-07T12:52:21,42.805,6.029,4330,1995,197.791,60.485,13.286
2017-11-07T12:55:21,42.805,6.029,4330,1995,197.820,60.494,13.286
2017-11-07T12:58:21,42.805,6.029,4330,1995,197.876,60.511,13.286
2017-11-07T13:01:21,42.805,6.029,4330,1995,197.938,60.530,13.286
2017-11-07T13:04:21,42.805,6.029,4330,1995,197.924,60.526,13.286
2017-11-07T13:07:21,42.805,6.029,4330,1995,197.936,60.529,13.286
2017-11-07T13:10:21,42.805,6.029,4330,1995,197.955,60.536,13.286
2017-11-07T13:13:21,42.805,6.029,4330,1995,197.988,60.545,13.286
2017-11-07T13:16:21,42.805,6.029,4330,1995,198.001,60.549,13.286
2017-11-07T13:19:21,42.805,6.029,4330,1995,198.051,60.564,13.286
2017-11-07T13:22:21,42.805,6.029,4330,1995,198.041,60.561,13.286
2017-11-07T13:25:21,42.805,6.029,4330,1995,198.028,60.558,13.286
2017-11-07T13:28:21,42.805,6.029,4330,1995,198.053,60.565,13.286
2017-11-07T13:31:21,42.805,6.029,4330,1995,198.094,60.577,13.286
2017-11-07T13:34:21,42.805,6.029,4330,1995,198.126,60.587,13.286
2017-11-07T13:37:21,42.805,6.029,4330,1995,198.151,60.595,13.286
2017-11-07T13:40:21,42.805,6.029,4330,1995,198.118,60.585,13.286
2017-11-07T13:43:21,42.805,6.029,4330,1995,198.102,60.580,13.286
2017-11-07T13:46:21,42.805,6.029,4330,1995,198.055,60.565,13.286
2017-11-07T13:49:21,42.805,6.029,4330,1995,198.088,60.576,13.286
2017-11-07T13:52:21,42.805,6.029,4330,1995,198.022,60.555,13.286
2017-11-07T13:55:21,42.805,6.029,4330,1995,198.027,60.557,13.286
2017-11-07T13:58:21,42.805,6.029,4330,1995,197.963,60.538,13.286
2017-11-07T14:01:21,42.805,6.029,4330,1995,197.887,60.514,13.286
2017-11-07T14:04:21,42.805,6.029,4330,1995,197.903,60.519,13.286
2017-11-07T14:07:21,42.805,6.029,4330,1995,197.894,60.516,13.286
2017-11-07T14:10:21,42.805,6.029,4330,1995,197.879,60.512,13.286
2017-11-07T14:13:21,42.805,6.029,4330,1995,197.821,60.494,13.286
2017-11-07T14:16:21,42.805,6.029,4330,1995,197.803,60.489,13.286
2017-11-07T14:19:21,42.805,6.029,4330,1995,197.814,60.492,13.286
2017-11-07T14:22:21,42.805,6.029,4330,1995,197.750,60.472,13.286
2017-11-07T14:25:21,42.805,6.029,4330,1995,197.753,60.473,13.286
2017-11-07T14:28:21,42.805,6.029,4330,1995,197.796,60.487,13.286
2017-11-07T14:31:21,42.805,6.029,4330,1995,197.765,60.477,13.286
2017-11-07T14:34:21,42.805,6.029,4330,1995,197.800,60.488,13.287
2017-11-07T14:37:21,42.805,6.029,4330,1995,197.742,60.470,13.286
2017-11-07T14:40:21,42.805,6.029,4330,1995,197.808,60.491,13.287
2017-11-07T14:43:21,42.805,6.029,4330,1995,197.823,60.495,13.286
2017-11-07T14:46:21,42.805,6.029,4330,1995,197.864,60.508,13.287
2017-11-07T14:49:21,42.805,6.029,4330,1995,197.912,60.522,13.286
2017-11-07T14:52:21,42.805,6.029,4330,1995,197.858,60.506,13.286
2017-11-07T14:55:21,42.805,6.029,4330,1995,197.823,60.495,13.287
2017-11-07T14:58:21,42.805,6.029,4330,1995,197.889,60.515,13.286
2017-11-07T15:01:21,42.805,6.029,4330,1995,197.868,60.509,13.287
2017-11-07T15:04:21,42.805,6.029,4330,1995,197.862,60.507,13.286
2017-11-07T15:07:21,42.805,6.029,4330,1995,197.863,60.507,13.287
2017-11-07T15:10:21,42.805,6.029,4330,1995,197.816,60.493,13.287
2017-11-07T15:13:21,42.805,6.029,4330,1995,197.877,60.512,13.287
2017-11-07T15:16:21,42.805,6.029,4330,1995,197.750,60.472,13.286
2017-11-07T15:19:21,42.805,6.029,4330,1995,197.798,60.487,13.286
2017-11-07T15:22:21,42.805,6.029,4330,1995,197.746,60.471,13.286
2017-11-07T15:25:21,42.805,6.029,4330,1995,197.714,60.461,13.286
2017-11-07T15:28:21,42.805,6.029,4330,1995,197.837,60.499,13.286
2017-11-07T15:31:21,42.805,6.029,4330,1995,197.758,60.475,13.286
2017-11-07T15:34:21,42.805,6.029,4330,1995,197.732,60.467,13.286
2017-11-07T15:37:21,42.805,6.029,4330,1995,197.748,60.472,13.286
2017-11-07T15:40:21,42.805,6.029,4330,1995,197.786,60.483,13.286
2017-11-07T15:43:21,42.805,6.029,4330,1995,197.749,60.472,13.286
2017-11-07T15:46:21,42.805,6.029,4330,1995,197.820,60.494,13.286
2017-11-07T15:49:21,42.805,6.029,4330,1995,197.813,60.492,13.286
2017-11-07T15:52:21,42.805,6.029,4330,1995,197.808,60.490,13.286
2017-11-07T15:55:21,42.805,6.029,4330,1995,197.839,60.499,13.286
2017-11-07T15:58:21,42.805,6.029,4330,1995,197.818,60.493,13.286
2017-11-07T16:01:21,42.805,6.029,4330,1995,197.905,60.520,13.286
2017-11-07T16:04:21,42.805,6.029,4330,1995,197.896,60.517,13.286
2017-11-07T16:07:21,42.805,6.029,4330,1995,197.956,60.535,13.286
2017-11-07T16:10:21,42.805,6.029,4330,1995,197.879,60.512,13.286
2017-11-07T16:13:21,42.805,6.029,4330,1995,197.830,60.497,13.286
2017-11-07T16:16:21,42.805,6.029,4330,1995,197.836,60.498,13.286
2017-11-07T16:19:21,42.805,6.029,4330,1995,197.879,60.512,13.286
2017-11-07T16:22:21,42.805,6.029,4330,1995,197.960,60.536,13.286
2017-11-07T16:25:21,42.805,6.029,4330,1995,197.919,60.524,13.286
2017-11-07T16:28:21,42.805,6.029,4330,1995,197.922,60.525,13.286
2017-11-07T16:31:21,42.805,6.029,4330,1995,197.909,60.521,13.286
2017-11-07T16:34:21,42.805,6.029,4330,1995,197.817,60.493,13.286
2017-11-07T16:37:21,42.805,6.029,4330,1995,197.905,60.520,13.286
2017-11-07T16:40:21,42.805,6.029,4330,1995,197.902,60.519,13.286
2017-11-07T16:43:21,42.805,6.029,4330,1995,197.972,60.540,13.286
2017-11-07T16:46:21,42.805,6.029,4330,1995,197.915,60.523,13.286
2017-11-07T16:49:21,42.805,6.029,4330,1995,197.953,60.534,13.286
2017-11-07T16:52:21,42.805,6.029,4330,1995,197.914,60.522,13.286
2017-11-07T16:55:21,42.805,6.029,4330,1995,197.920,60.524,13.286
2017-11-07T16:58:21,42.805,6.029,4330,1995,197.879,60.512,13.286
2017-11-07T17:01:21,42.805,6.029,4330,1995,197.822,60.494,13.286
2017-11-07T17:04:21,42.805,6.029,4330,1995,197.933,60.528,13.286
2017-11-07T17:07:21,42.805,6.029,4330,1995,197.840,60.500,13.286
2017-11-07T17:10:21,42.805,6.029,4330,1995,197.909,60.521,13.286
2017-11-07T17:13:21,42.805,6.029,4330,1995,197.925,60.526,13.286
2017-11-07T17:16:21,42.805,6.029,4330,1995,197.964,60.538,13.286
2017-11-07T17:19:21,42.805,6.029,4330,1995,197.918,60.523,13.286
2017-11-07T17:22:21,42.805,6.029,4330,1995,197.800,60.488,13.286
2017-11-07T17:25:21,42.805,6.029,4330,1995,197.926,60.526,13.286
2017-11-07T17:28:21,42.805,6.029,4330,1995,197.951,60.533,13.286
2017-11-07T17:31:21,42.805,6.029,4330,1995,197.950,60.534,13.286
2017-11-07T17:34:21,42.805,6.029,4330,1995,197.851,60.503,13.286
2017-11-07T17:37:21,42.805,6.029,4330,1995,197.952,60.534,13.286
2017-11-07T17:40:21,42.805,6.029,4330,1995,197.811,60.491,13.286
2017-11-07T17:43:21,42.805,6.029,4330,1995,197.746,60.471,13.286
2017-11-07T17:46:21,42.805,6.029,4330,1995,197.807,60.490,13.286
2017-11-07T17:49:21,42.805,6.029,4330,1995,197.854,60.504,13.286
2017-11-07T17:52:21,42.805,6.029,4330,1995,197.836,60.498,13.286
2017-11-07T17:55:21,42.805,6.029,4330,1995,197.798,60.487,13.286
2017-11-07T17:58:21,42.805,6.029,4330,1995,197.826,60.495,13.286
2017-11-07T18:01:21,42.805,6.029,4330,1995,197.811,60.491,13.286
2017-11-07T18:04:21,42.805,6.029,4330,1995,197.820,60.494,13.286
2017-11-07T18:07:21,42.805,6.029,4330,1995,197.837,60.499,13.286